Regional Weather Roundup
Issued by NWS

Home | Current Version | Previous Version | Text Only | Print | Product List | Glossary Off
Versions: 1 2 3 4 5 6 7 8 9 10 11 12 13 14 15 16 17 18 19 20 21 22 23 24 25 26 27 28 29 30 31 32 33 34 35 36 37 38 39 40 41 42 43 44 45 46 47 48 49 50

000
ASUS43 KBIS 270902
RWRND

NORTH DAKOTA REGIONAL WEATHER ROUNDUP
NATIONAL WEATHER SERVICE BISMARCK ND
300 AM CST MON FEB 27 2017

NOTE: "FAIR" INDICATES FEW OR NO CLOUDS BELOW 12,000 FEET WITH NO
SIGNIFICANT WEATHER AND/OR OBSTRUCTIONS TO VISIBILITY.


NDZ001>003-009>011-017-271000-
NORTHWEST NORTH DAKOTA

CITY           SKY/WX    TMP DP  RH WIND       PRES   REMARKS
WILLISTON      CLOUDY    12   7  80 N7        29.81F WCI   1
MINOT          FAIR      14  10  84 SW12      29.80F WCI   0
MINOT AFB      CLOUDY    11   8  87 W13       29.81R WCI  -4
$$

NDZ018>021-031>035-040>046-271000-
SOUTHWEST NORTH DAKOTA

CITY           SKY/WX    TMP DP  RH WIND       PRES   REMARKS
BISMARCK       FAIR      11   8  88 NE6       29.85F WCI   1
DICKINSON      CLOUDY    16  13  88 S5        29.74S WCI   9
GARRISON         N/A      4   0  83 CALM      29.81S
HETTINGER ARPT CLOUDY    20  16  84 SE6       29.76F WCI  12
$$

NDZ004>008-012>016-024-026-027-054-271000-
NORTHEAST NORTH DAKOTA

CITY           SKY/WX    TMP DP  RH WIND       PRES   REMARKS
GRAND FORKS    CLOUDY     8   1  73 S6        29.91S WCI  -2
GRND FRKS AFB  CLOUDY    10   4  79 SW6       29.90S WCI   0
DEVILS LAKE    FAIR      10   7  87 SW8       29.85S WCI  -2
$$

NDZ022-023-025-028>030-036>039-047>053-271000-
SOUTHEAST NORTH DAKOTA

CITY           SKY/WX    TMP DP  RH WIND       PRES   REMARKS
FARGO          CLOUDY    21  15  78 S5        29.92S WCI  15
JAMESTOWN      MOCLDY    19  16  88 CALM      29.85F
$$





USA.gov is the U.S. government's official web portal to all federal, state and local government web resources and services.